Regional Weather Roundup
Issued by NWS Jackson, KY

Home | Current Version | Previous Version | Text Only | Print | Product List | Glossary On
Versions: 1 2 3 4 5 6 7 8 9 10 11 12 13 14 15 16 17 18 19 20 21 22 23 24 25 26 27 28 29 30 31 32 33 34 35 36 37 38 39 40 41 42 43 44 45 46 47 48 49 50
000
ASUS43 KJKL 191610
RWRJKL

EAST KENTUCKY HOURLY WEATHER ROUNDUP
NATIONAL WEATHER SERVICE JACKSON KY
1200 PM EDT SAT AUG 19 2017

NOTE: "FAIR" INDICATES FEW OR NO CLOUDS BELOW 12,000 FEET WITH
NO SIGNIFICANT WEATHER AND/OR OBSTRUCTIONS TO VISIBILITY.

* THESE REPORTS ARE NOT UNDER NWS QUALITY CONTROL AND MAY NOT
  REPORT WEATHER SUCH AS PRECIPITATION AND FOG.

KYZ079-080-083-085-087-088-110-112-115-119-120-191700
...EASTERN KENTUCKY...

CITY           SKY/WX    TMP DP  RH WIND       PRES   REMARKS
JACKSON        SUNNY     78  66  66 VRB3      30.04S
LONDON         SUNNY     79  67  66 S6        30.04S
SOMERSET*      SUNNY     79  64  61 W6        30.05R
MONTICELLO*    SUNNY     83  69  62 W8G17     30.05S
WILLIAMSBURG*  SUNNY     79  70  73 CALM      30.04S
MIDDLESBORO*   SUNNY     78  69  75 N3        30.05F
HARLAN APT*    SUNNY     77  64  65 CALM      30.06F
PIKE CO APT*     N/A     76  71  82 CALM      30.04S
BIG SANDY APT* SUNNY     80  69  68 SW5       30.03S
MOREHEAD APT*  SUNNY     81  68  65 SW8       30.03R
$$

KYZ035-036-041-042-044-050-067-078-099-191700
...CENTRAL KENTUCKY...

CITY           SKY/WX    TMP DP  RH WIND       PRES   REMARKS
MT STERLING*   SUNNY     81  66  61 SW8       30.03S
FLEMING/MASON* SUNNY     83  68  60 SW7       30.01S
DANVILLE*      MOSUNNY   82  64  54 W6        30.04R
LEXINGTON      SUNNY     82  66  58 SW10      30.01S
FRANKFORT      SUNNY     83  65  54 SW10      29.99R
LOUISVILLE     CLOUDY    85  68  56 CALM      29.97F
LEBANON*         N/A     82  68  61 SW6       30.02S
GLASGOW*       SUNNY     84  67  57 CALM      30.01F
BOWLING GREEN  CLOUDY    84  70  62 CALM      30.00F
$$

KYZ091>093-OHZ055-061-077-WVZ005-015-034-035-042-191700
...SOUTHERN OHIO/WEST VIRGINIA...

CITY           SKY/WX    TMP DP  RH WIND       PRES   REMARKS
COVINGTON      PTSUNNY   78  70  76 SW7       29.98R
COLUMBUS       MOSUNNY   79  67  66 SW8       29.94S
DAYTON         MOSUNNY   80  64  58 W13       29.98R
WILMINGTON     SUNNY     80  69  69 SW8       29.98R
HUNTINGTON     SUNNY     80  69  69 S8        29.99S
CHARLESTON     MOSUNNY   81  66  60 S9        30.00S
PINEVILLE*     MOSUNNY   75  65  70 MISG      30.11F
BECKLEY        MOSUNNY   75  62  64 VRB5      30.08S
BLUEFIELD      MOSUNNY   72  61  68 W8        30.13R
LOGAN CO APT*    N/A     77  66  69 CALM      30.04S
$$

VAZ002-007-008-TNZ017-027-036-066-071-191700
...SOUTHWEST VIRGINIA/EAST TENNESSEE...

CITY           SKY/WX    TMP DP  RH WIND       PRES   REMARKS
WISE*          SUNNY     75  61  60 S3        30.12F
JONESVILLE*      N/A     81  64  57 CALM      30.08S
ABINGDON*      MOSUNNY   78  66  64 W3        30.10S
BRISTOL        MOSUNNY   78  65  63 CALM      30.07F
MORRISTOWN*    MOSUNNY   81  66  61 VRB5      30.05F
SEVIERVILLE*   SUNNY     81  61  50 CALM      30.04F
KNOXVILLE      MOSUNNY   81  64  56 VRB6      30.03F
LAFOLLETTE*    SUNNY     82  68  61 SW6       30.08S
OAK RIDGE      SUNNY     82  64  54 E5        30.05S
CROSSVILLE     SUNNY     78  65  63 VRB3      30.08F
NASHVILLE      MOSUNNY   86  67  52 SW5       30.02S
$$

...KEY TO REMARKS...
VSB - VISIBILITY IN MILES
WCI - WIND CHILL INDEX
HX  - HEAT INDEX

$$



USA.gov is the U.S. government's official web portal to all federal, state and local government web resources and services.